Cadillac, MI

2:27 AM EST on November 17, 2019 (GMT -0500)
Wexford County

Weather History for KCAD - October, 2019

Change the Weather History Date:

Wednesday, October 23, 2019

  Actual Average Record
Temperature  
Mean Temperature 44 °F -  
Max Temperature 50 °F 53 °F 80 °F (1963)
Min Temperature 37 °F 33 °F 19 °F (1976)
Degree Days  
Heating Degree Days 22    
Moisture  
Dew Point 37 °F    
Average Humidity 80    
Maximum Humidity 91    
Minimum Humidity 54    
Precipitation  
Precipitation 0.00 in - - ()
Sea Level Pressure  
Sea Level Pressure 29.77 in    
Wind  
Wind Speed 11 mph (WSW)    
Max Wind Speed 21 mph    
Max Gust Speed 28 mph    
Visibility 10 miles    
Events Rain    
Averages and records for this station are not official NWS values.
T = Trace of Precipitation, MM = Missing Value Source: NWS Daily Summary

Daily Weather History Graph

Daily Weather History Graph

Search for Another Location

Airport or City:

Astronomy

Oct. 23, 2019 Rise Set
Actual Time 8:06 AM EDT 6:44 PM EDT
Civil Twilight 7:36 AM EDT 7:14 PM EDT
Nautical Twilight 7:03 AM EDT 7:48 PM EDT
Astronomical Twilight 6:29 AM EDT 8:21 PM EDT
Moon 2:07 AM EDT (10/23) 4:49 PM EDT (10/23)
Length of Visible Light 11h 37m
Length of Day
10h 38m
Waning Crescent, 27% of the Moon is Illuminated
Oct 23
Waning Crescent
Oct 27
New
Nov 4
First Quarter
Nov 12
Full
Nov 19
Last Quarter

Hourly Weather History & Observations

Time (EDT) Temp. Windchill Dew Point Humidity Pressure Visibility Wind Dir Wind Speed Gust Speed Precip Events Conditions
12:17 AM 42.4 °F 37.0 °F 40.1 °F 91% 29.58 in 10.0 mi SW 9.2 mph 17.3 mph N/A   Drizzle
12:35 AM 42.4 °F 36.1 °F 40.1 °F 91% 29.58 in 7.0 mi SW 11.5 mph 19.6 mph N/A Rain Rain
12:55 AM 42.4 °F 35.0 °F 40.1 °F 91% 29.58 in 10.0 mi SW 15.0 mph 23.0 mph N/A Rain Rain
12:56 AM 42.4 °F 35.0 °F 40.1 °F 91% 29.58 in 10.0 mi SW 15.0 mph 23.0 mph N/A Rain Rain
1:15 AM 42.4 °F 36.1 °F 40.1 °F 91% 29.59 in 10.0 mi WSW 11.5 mph 21.9 mph N/A Rain Light Rain
1:38 AM 42.3 °F 36.3 °F 39.7 °F 91% 29.59 in 10.0 mi WSW 10.4 mph 16.1 mph N/A   Drizzle
1:56 AM 42.1 °F 33.9 °F 39.4 °F 90% 29.60 in 10.0 mi WSW 17.3 mph 27.6 mph N/A Rain Rain
2:15 AM 41.4 °F 35.2 °F 38.8 °F 91% 29.59 in 10.0 mi WSW 10.4 mph 20.7 mph N/A   Overcast
2:35 AM 41.5 °F 34.2 °F 39.2 °F 91% 29.60 in 10.0 mi WSW 13.8 mph 17.3 mph N/A   Overcast
2:36 AM 41.5 °F 33.8 °F 39.2 °F 91% 29.60 in 10.0 mi WSW 15.0 mph - N/A   Overcast
2:59 AM 41.5 °F 34.2 °F 39.2 °F 91% 29.60 in 10.0 mi WSW 13.8 mph 20.7 mph N/A   Overcast
3:17 AM 41.5 °F 35.0 °F 39.2 °F 91% 29.60 in 10.0 mi WSW 11.5 mph 19.6 mph N/A   Overcast
3:35 AM 41.5 °F 33.8 °F 39.2 °F 91% 29.61 in 10.0 mi SW 15.0 mph - N/A Rain Light Rain
3:36 AM 41.5 °F 33.8 °F 39.2 °F 91% 29.61 in 10.0 mi SW 15.0 mph - N/A Rain Light Rain
3:56 AM 41.5 °F 35.0 °F 39.2 °F 91% 29.62 in 10.0 mi WSW 11.5 mph 17.3 mph N/A   Overcast
4:15 AM 41.5 °F 34.6 °F 39.2 °F 91% 29.62 in 10.0 mi WSW 12.7 mph 20.7 mph N/A   Overcast
4:20 AM 41.5 °F 35.0 °F 39.2 °F 91% 29.62 in 10.0 mi WSW 11.5 mph 20.7 mph N/A   Overcast
4:38 AM 41.7 °F 35.2 °F 39.2 °F 91% 29.63 in 10.0 mi WSW 11.5 mph 17.3 mph N/A   Overcast
4:55 AM 41.5 °F 35.4 °F 39.2 °F 91% 29.63 in 7.0 mi WSW 10.4 mph 18.4 mph N/A   Heavy Drizzle
5:15 AM 41.0 °F 35.2 °F 38.5 °F 91% 29.64 in 10.0 mi WSW 9.2 mph 21.9 mph N/A Rain Light Rain
5:16 AM 41.0 °F 34.7 °F 38.5 °F 91% 29.64 in 10.0 mi WSW 10.4 mph 13.8 mph N/A Rain Light Rain
5:35 AM 41.7 °F 35.6 °F 39.2 °F 91% 29.64 in 10.0 mi SW 10.4 mph - N/A   Overcast
5:59 AM 41.5 °F 35.4 °F 39.2 °F 91% 29.65 in 10.0 mi SW 10.4 mph - N/A   Overcast
6:17 AM 41.2 °F 35.0 °F 38.7 °F 91% 29.66 in 10.0 mi SW 10.4 mph - N/A   Overcast
6:36 AM 41.4 °F 36.2 °F 38.8 °F 91% 29.66 in 10.0 mi WSW 8.1 mph - N/A   Overcast
6:55 AM 41.5 °F 35.4 °F 39.2 °F 91% 29.67 in 10.0 mi WSW 10.4 mph - N/A   Overcast
6:56 AM 41.5 °F 35.9 °F 39.2 °F 91% 29.67 in 10.0 mi WSW 9.2 mph - N/A   Overcast
7:15 AM 41.7 °F 35.2 °F 39.2 °F 91% 29.68 in 10.0 mi SW 11.5 mph - N/A   Overcast
7:20 AM 41.9 °F 35.9 °F 39.2 °F 90% 29.68 in 10.0 mi SW 10.4 mph - N/A   Overcast
7:56 AM 41.2 °F 35.5 °F 38.7 °F 91% 29.69 in 7.0 mi WSW 9.2 mph - N/A Rain Light Rain
8:15 AM 41.5 °F 36.4 °F 39.2 °F 91% 29.70 in 10.0 mi SW 8.1 mph - N/A Rain Light Rain
8:35 AM 41.5 °F 35.9 °F 39.2 °F 91% 29.71 in 10.0 mi WSW 9.2 mph - N/A   Drizzle
8:59 AM 41.5 °F 37.8 °F 39.2 °F 91% 29.72 in 10.0 mi WSW 5.8 mph - N/A Rain Light Rain
9:17 AM 41.9 °F 37.5 °F 39.2 °F 90% 29.73 in 4.0 mi WSW 6.9 mph - N/A Rain Heavy Rain
9:35 AM 41.5 °F 36.4 °F 39.2 °F 91% 29.74 in 10.0 mi West 8.1 mph - N/A   Drizzle
9:36 AM 41.5 °F 36.4 °F 39.2 °F 91% 29.74 in 10.0 mi West 8.1 mph - N/A   Drizzle
9:55 AM 41.5 °F 33.8 °F 39.2 °F 91% 29.76 in 10.0 mi WSW 15.0 mph 21.9 mph N/A   Drizzle
9:56 AM 41.5 °F 33.8 °F 39.2 °F 91% 29.76 in 10.0 mi WSW 15.0 mph 21.9 mph N/A   Light Drizzle
10:15 AM 41.9 °F 35.9 °F 39.2 °F 90% 29.76 in 10.0 mi WSW 10.4 mph - N/A Rain Light Rain
10:20 AM 41.9 °F 36.9 °F 39.2 °F 90% 29.76 in 10.0 mi WSW 8.1 mph - N/A   Drizzle
10:38 AM 41.9 °F 36.9 °F 39.4 °F 91% 29.77 in 10.0 mi WSW 8.1 mph - N/A   Light Drizzle
10:56 AM 43.0 °F 37.2 °F 40.5 °F 91% 29.77 in 10.0 mi WSW 10.4 mph 18.4 mph N/A   Overcast
11:15 AM 45.7 °F 38.8 °F 39.2 °F 78% 29.77 in 10.0 mi WSW 16.1 mph 24.2 mph N/A   Overcast
11:16 AM 45.7 °F 39.8 °F 38.8 °F 77% 29.77 in 10.0 mi WSW 12.7 mph 24.2 mph N/A   Overcast
11:35 AM 45.9 °F 39.4 °F 38.8 °F 76% 29.78 in 10.0 mi SW 15.0 mph 24.2 mph N/A   Overcast
11:59 AM 48.0 °F - 39.0 °F 71% 29.79 in 10.0 mi SW 18.4 mph 26.5 mph N/A   Overcast
12:17 PM 46.2 °F 39.3 °F 36.7 °F 69% 29.80 in 10.0 mi WSW 17.3 mph 24.2 mph N/A   Overcast
12:35 PM 45.7 °F 37.8 °F 36.3 °F 70% 29.81 in 10.0 mi WSW 20.7 mph 27.6 mph N/A   Overcast
12:55 PM 45.7 °F 38.6 °F 36.1 °F 69% 29.81 in 10.0 mi WSW 17.3 mph 23.0 mph N/A   Overcast
1:15 PM 46.8 °F - 36.0 °F 66% 29.82 in 10.0 mi WSW 13.8 mph 20.7 mph N/A   Overcast
1:20 PM 46.9 °F - 36.1 °F 66% 29.82 in 10.0 mi WSW 17.3 mph 20.7 mph N/A   Overcast
1:38 PM 47.7 °F - 34.9 °F 61% 29.82 in 10.0 mi WSW 15.0 mph 24.2 mph N/A   Overcast
1:56 PM 46.6 °F - 33.8 °F 61% 29.81 in 10.0 mi WSW 15.0 mph 19.6 mph N/A   Mostly Cloudy
2:15 PM 48.7 °F - 33.8 °F 56% 29.82 in 10.0 mi WSW 16.1 mph 24.2 mph N/A   Mostly Cloudy
2:16 PM 48.4 °F - 33.8 °F 57% 29.82 in 10.0 mi WSW 17.3 mph 24.2 mph N/A   Mostly Cloudy
2:35 PM 50.7 °F - 35.1 °F 55% 29.82 in 10.0 mi WSW 16.1 mph 20.7 mph N/A   Overcast
2:36 PM 50.9 °F - 35.1 °F 55% 29.82 in 10.0 mi SW 18.4 mph - N/A   Overcast
2:59 PM 48.0 °F - 33.4 °F 57% 29.83 in 10.0 mi West 13.8 mph 21.9 mph N/A   Scattered Clouds
3:17 PM 49.8 °F - 34.9 °F 56% 29.83 in 10.0 mi West 15.0 mph 23.0 mph N/A   Mostly Cloudy
3:35 PM 48.2 °F - 33.4 °F 57% 29.84 in 10.0 mi WSW 17.3 mph 26.5 mph N/A   Mostly Cloudy
3:36 PM 48.2 °F - 33.4 °F 57% 29.84 in 10.0 mi WSW 16.1 mph 25.3 mph N/A   Mostly Cloudy
3:55 PM 48.7 °F - 34.5 °F 58% 29.84 in 10.0 mi WSW 13.8 mph 19.6 mph N/A   Mostly Cloudy
3:56 PM 48.6 °F - 34.5 °F 58% 29.84 in 10.0 mi SW 16.1 mph 19.6 mph N/A   Mostly Cloudy
4:15 PM 49.8 °F - 33.8 °F 54% 29.85 in 10.0 mi West 13.8 mph 23.0 mph N/A   Overcast
4:20 PM 49.8 °F - 33.6 °F 54% 29.86 in 10.0 mi WSW 17.3 mph 24.2 mph N/A   Overcast
4:38 PM 49.1 °F - 34.7 °F 58% 29.86 in 10.0 mi WSW 15.0 mph 21.9 mph N/A   Overcast
4:56 PM 48.7 °F - 34.0 °F 57% 29.86 in 10.0 mi West 11.5 mph - N/A   Mostly Cloudy
5:15 PM 49.1 °F - 33.8 °F 56% 29.86 in 10.0 mi WSW 10.4 mph 19.6 mph N/A   Scattered Clouds
5:16 PM 49.1 °F - 33.8 °F 56% 29.86 in 10.0 mi WSW 10.4 mph 19.6 mph N/A   Scattered Clouds
5:35 PM 48.4 °F - 34.2 °F 58% 29.86 in 10.0 mi WSW 9.2 mph - N/A   Scattered Clouds
5:36 PM 48.2 °F - 34.2 °F 58% 29.86 in 10.0 mi WSW 8.1 mph - N/A   Clear
5:59 PM 48.2 °F - 34.0 °F 58% 29.88 in 10.0 mi WSW 8.1 mph - N/A   Clear
6:17 PM 47.5 °F - 33.4 °F 58% 29.87 in 10.0 mi WSW 9.2 mph - N/A   Clear
6:35 PM 45.7 °F 42.0 °F 33.6 °F 63% 29.89 in 10.0 mi WSW 6.9 mph - N/A   Clear
7:15 PM 43.3 °F 41.7 °F 33.6 °F 69% 29.91 in 10.0 mi WSW 3.5 mph - N/A   Clear
7:38 PM 42.4 °F - 34.3 °F 73% 29.91 in 10.0 mi Calm Calm - N/A   Clear
7:56 PM 40.5 °F - 35.4 °F 82% 29.92 in 10.0 mi Calm Calm - N/A   Clear
8:15 PM 39.0 °F 35.7 °F 36.3 °F 90% 29.93 in 10.0 mi SSW 4.6 mph - N/A   Clear
8:16 PM 39.0 °F 35.7 °F 36.1 °F 89% 29.93 in 10.0 mi SSW 4.6 mph - N/A   Clear
8:35 PM 37.9 °F - 34.3 °F 87% 29.93 in 10.0 mi Calm Calm - N/A   Scattered Clouds
8:58 PM 38.1 °F - 35.6 °F 91% 29.94 in 10.0 mi Calm Calm - N/A   Scattered Clouds
9:17 PM 37.6 °F - 35.2 °F 91% 29.94 in 10.0 mi Calm Calm - N/A   Mostly Cloudy
9:35 PM 38.1 °F - 35.6 °F 91% 29.95 in 10.0 mi Calm Calm - N/A   Overcast
9:55 PM 39.2 °F 37.0 °F 36.7 °F 91% 29.97 in 10.0 mi SW 3.5 mph - N/A   Overcast
10:15 PM 41.5 °F - 37.4 °F 85% 29.97 in 10.0 mi Calm Calm - N/A   Overcast
10:38 PM 41.5 °F - 37.0 °F 84% 29.97 in 10.0 mi Calm Calm - N/A   Overcast
10:56 PM 41.0 °F - 37.6 °F 88% 29.98 in 10.0 mi Calm Calm - N/A   Overcast
11:15 PM 41.4 °F - 38.3 °F 89% 29.96 in 10.0 mi Calm Calm - N/A Rain Light Rain
11:35 PM 41.2 °F 38.2 °F 38.5 °F 90% 29.95 in 10.0 mi NNW 4.6 mph - N/A Rain Rain
11:36 PM 41.2 °F 39.2 °F 38.3 °F 89% 29.95 in 10.0 mi NNW 3.5 mph - N/A Rain Rain
11:59 PM 42.1 °F 40.2 °F 39.6 °F 91% 29.96 in 10.0 mi West 3.5 mph - N/A Rain Light Rain